User: anonymous   Login
Location: Unspecified
(0.0000°N, 0.0000°E)
Time: 22:25:45
(UTC+00:00)
Language:

Aussat K1 - Orbit

View from above orbital plane
View from above orbital plane
View from above satellite
View from above satellite

Ground track
Ground track

The orbit data is extracted from the following two-line orbital elements,

1 15993U 85076B   14293.94210137  .00000097  00000-0  00000+0 0  8577
2 15993 014.9018 017.8317 0003351 198.5140 187.6452 00.99761191 77111
Epoch (UTC): 20 October 2014 22:36:37
Eccentricity: 0.0003351
inclination: 14.9018°
perigee height: 35916 km
apogee height: 35944 km
right ascension of ascending node: 17.8317°
argument of perigee: 198.5140°
revolutions per day: 0.99761191
mean anomaly at epoch: 187.6452°
orbit number at epoch: 7711

The dashed part of the orbit path shows where the satellite is in the earth's shadow,  

DLR